TimeMST,TemperatureF,Dew PointF,Humidity,Sea Level PressureIn,VisibilityMPH,Wind Direction,Wind SpeedMPH,Gust SpeedMPH,PrecipitationIn,Events,Conditions,WindDirDegrees,DateUTC
12:17 AM,23.0,21.2,93,30.42,-9999.0,North,-9999.0,-,N/A,,Overcast,0,2013-01-25 07:17:00
12:37 AM,23.0,21.2,93,30.42,-9999.0,North,-9999.0,-,N/A,,Overcast,0,2013-01-25 07:37:00
12:57 AM,23.0,21.2,93,30.42,-9999.0,North,-9999.0,-,N/A,,Overcast,0,2013-01-25 07:57:00
1:17 AM,23.0,21.2,93,30.41,-9999.0,North,-9999.0,-,N/A,,Overcast,0,2013-01-25 08:17:00
1:37 AM,23.0,21.2,93,30.41,-9999.0,North,-9999.0,-,N/A,,Overcast,0,2013-01-25 08:37:00
1:57 AM,23.0,21.2,93,30.41,-9999.0,North,-9999.0,-,N/A,,Overcast,0,2013-01-25 08:57:00
2:17 AM,23.0,21.2,93,30.41,-9999.0,North,-9999.0,-,N/A,,Overcast,0,2013-01-25 09:17:00
2:37 AM,23.0,21.2,93,30.41,-9999.0,North,-9999.0,-,N/A,,Overcast,0,2013-01-25 09:37:00
2:57 AM,23.0,21.2,93,30.40,-9999.0,North,-9999.0,-,N/A,,Overcast,0,2013-01-25 09:57:00
3:17 AM,23.0,21.2,93,30.41,-9999.0,North,-9999.0,-,N/A,,Overcast,0,2013-01-25 10:17:00
3:37 AM,23.0,21.2,93,30.41,-9999.0,North,-9999.0,-,N/A,,Overcast,0,2013-01-25 10:37:00
3:57 AM,23.0,21.2,93,30.39,-9999.0,North,-9999.0,-,N/A,,Overcast,0,2013-01-25 10:57:00
4:17 AM,23.0,21.2,93,30.37,-9999.0,North,-9999.0,-,N/A,,Overcast,0,2013-01-25 11:17:00
4:37 AM,23.0,21.2,93,30.38,-9999.0,North,-9999.0,-,N/A,,Overcast,0,2013-01-25 11:37:00
4:57 AM,23.0,21.2,93,30.39,-9999.0,North,-9999.0,-,N/A,,Overcast,0,2013-01-25 11:57:00
5:17 AM,23.0,21.2,93,30.38,-9999.0,North,-9999.0,-,N/A,,Overcast,0,2013-01-25 12:17:00
5:37 AM,23.0,21.2,93,30.39,-9999.0,North,-9999.0,-,N/A,,Overcast,0,2013-01-25 12:37:00
5:57 AM,23.0,21.2,93,30.39,-9999.0,North,-9999.0,-,N/A,,Unknown,0,2013-01-25 12:57:00
6:37 AM,23.0,21.2,93,30.41,-9999.0,North,-9999.0,-,N/A,,Unknown,0,2013-01-25 13:37:00
6:57 AM,23.0,21.2,93,30.42,-9999.0,North,-9999.0,-,N/A,,Unknown,0,2013-01-25 13:57:00
7:17 AM,23.0,21.2,93,30.42,-9999.0,North,-9999.0,-,N/A,,Overcast,0,2013-01-25 14:17:00
7:37 AM,23.0,21.2,93,30.43,-9999.0,North,-9999.0,-,N/A,,Overcast,0,2013-01-25 14:37:00
7:57 AM,23.0,23.0,100,30.42,-9999.0,North,-9999.0,-,N/A,,Overcast,0,2013-01-25 14:57:00
8:17 AM,23.0,21.2,93,30.42,-9999.0,North,-9999.0,-,N/A,,Overcast,0,2013-01-25 15:17:00
8:37 AM,23.0,21.2,93,30.42,-9999.0,North,-9999.0,-,N/A,,Overcast,0,2013-01-25 15:37:00
8:57 AM,23.0,23.0,100,30.42,-9999.0,North,-9999.0,-,N/A,,Overcast,0,2013-01-25 15:57:00
9:17 AM,23.0,23.0,100,30.42,-9999.0,North,-9999.0,-,N/A,,Overcast,0,2013-01-25 16:17:00
9:37 AM,23.0,23.0,100,30.43,-9999.0,North,-9999.0,-,N/A,,Overcast,0,2013-01-25 16:37:00
9:57 AM,24.8,23.0,93,30.44,-9999.0,North,-9999.0,-,N/A,,Overcast,0,2013-01-25 16:57:00
10:17 AM,24.8,23.0,93,30.45,-9999.0,North,-9999.0,-,N/A,,Overcast,0,2013-01-25 17:17:00
10:37 AM,24.8,23.0,93,30.45,-9999.0,North,-9999.0,-,N/A,,Overcast,0,2013-01-25 17:37:00
10:57 AM,26.6,23.0,86,30.45,-9999.0,North,-9999.0,-,N/A,,Overcast,0,2013-01-25 17:57:00
11:17 AM,26.6,23.0,86,30.43,-9999.0,North,-9999.0,-,N/A,,Overcast,0,2013-01-25 18:17:00
11:37 AM,26.6,24.8,93,30.42,-9999.0,North,-9999.0,-,N/A,,Overcast,0,2013-01-25 18:37:00
11:57 AM,26.6,24.8,93,30.41,-9999.0,North,-9999.0,-,N/A,,Overcast,0,2013-01-25 18:57:00
12:17 PM,26.6,24.8,93,30.40,-9999.0,North,-9999.0,-,N/A,,Overcast,0,2013-01-25 19:17:00
12:37 PM,26.6,24.8,93,30.40,-9999.0,North,-9999.0,-,N/A,,Overcast,0,2013-01-25 19:37:00
12:57 PM,26.6,24.8,93,30.39,-9999.0,North,-9999.0,-,N/A,,Overcast,0,2013-01-25 19:57:00
1:17 PM,26.6,26.6,100,30.37,-9999.0,North,-9999.0,-,N/A,,Overcast,0,2013-01-25 20:17:00
1:37 PM,26.6,26.6,100,30.37,-9999.0,North,-9999.0,-,N/A,,Overcast,0,2013-01-25 20:37:00
1:57 PM,26.6,24.8,93,30.36,-9999.0,North,-9999.0,-,N/A,,Overcast,0,2013-01-25 20:57:00
2:17 PM,26.6,26.6,100,30.36,-9999.0,North,-9999.0,-,N/A,,Overcast,0,2013-01-25 21:17:00
2:37 PM,26.6,26.6,100,30.37,-9999.0,North,-9999.0,-,N/A,,Overcast,0,2013-01-25 21:37:00
2:57 PM,26.6,24.8,93,30.36,-9999.0,North,-9999.0,-,N/A,,Overcast,0,2013-01-25 21:57:00
3:17 PM,26.6,24.8,93,30.37,-9999.0,North,-9999.0,-,N/A,,Overcast,0,2013-01-25 22:17:00
3:37 PM,26.6,24.8,93,30.37,-9999.0,North,-9999.0,-,N/A,,Overcast,0,2013-01-25 22:37:00
3:57 PM,26.6,24.8,93,30.36,-9999.0,North,-9999.0,-,N/A,,Overcast,0,2013-01-25 22:57:00
4:17 PM,26.6,24.8,93,30.36,-9999.0,North,-9999.0,-,N/A,,Overcast,0,2013-01-25 23:17:00
4:37 PM,26.6,24.8,93,30.36,-9999.0,North,-9999.0,-,N/A,,Overcast,0,2013-01-25 23:37:00
4:57 PM,26.6,24.8,93,30.36,-9999.0,North,-9999.0,-,N/A,,Overcast,0,2013-01-25 23:57:00
5:17 PM,26.6,24.8,93,30.36,-9999.0,North,-9999.0,-,N/A,,Overcast,0,2013-01-26 00:17:00
5:37 PM,26.6,24.8,93,30.36,-9999.0,North,-9999.0,-,N/A,,Overcast,0,2013-01-26 00:37:00
5:57 PM,26.6,24.8,93,30.36,-9999.0,North,-9999.0,-,N/A,,Overcast,0,2013-01-26 00:57:00
6:17 PM,26.6,24.8,93,30.36,-9999.0,North,-9999.0,-,N/A,,Overcast,0,2013-01-26 01:17:00
6:37 PM,26.6,24.8,93,30.37,-9999.0,North,-9999.0,-,N/A,,Overcast,0,2013-01-26 01:37:00
6:57 PM,26.6,24.8,93,30.37,-9999.0,North,-9999.0,-,N/A,,Overcast,0,2013-01-26 01:57:00
7:17 PM,26.6,24.8,93,30.37,-9999.0,North,-9999.0,-,N/A,,Overcast,0,2013-01-26 02:17:00
7:37 PM,26.6,24.8,93,30.37,-9999.0,North,-9999.0,-,N/A,,Overcast,0,2013-01-26 02:37:00
7:57 PM,26.6,23.0,86,30.37,-9999.0,North,-9999.0,-,N/A,,Overcast,0,2013-01-26 02:57:00
8:17 PM,26.6,23.0,86,30.36,-9999.0,North,-9999.0,-,N/A,,Overcast,0,2013-01-26 03:17:00
8:37 PM,26.6,23.0,86,30.35,-9999.0,North,-9999.0,-,N/A,,Overcast,0,2013-01-26 03:37:00
8:57 PM,26.6,23.0,86,30.36,-9999.0,North,-9999.0,-,N/A,,Overcast,0,2013-01-26 03:57:00
9:17 PM,26.6,23.0,86,30.37,-9999.0,North,-9999.0,-,N/A,,Overcast,0,2013-01-26 04:17:00
9:37 PM,24.8,23.0,93,30.37,-9999.0,North,-9999.0,-,N/A,,Overcast,0,2013-01-26 04:37:00
9:57 PM,24.8,23.0,93,30.37,-9999.0,North,-9999.0,-,N/A,,Overcast,0,2013-01-26 04:57:00
10:17 PM,24.8,23.0,93,30.37,-9999.0,North,-9999.0,-,N/A,,Overcast,0,2013-01-26 05:17:00
10:37 PM,24.8,23.0,93,30.36,-9999.0,North,-9999.0,-,N/A,,Overcast,0,2013-01-26 05:37:00
10:57 PM,24.8,23.0,93,30.36,-9999.0,North,-9999.0,-,N/A,,Overcast,0,2013-01-26 05:57:00
11:17 PM,24.8,23.0,93,30.36,-9999.0,North,-9999.0,-,N/A,,Overcast,0,2013-01-26 06:17:00
11:37 PM,23.0,23.0,100,30.35,-9999.0,North,-9999.0,-,N/A,,Overcast,0,2013-01-26 06:37:00
11:57 PM,24.8,23.0,93,30.35,-9999.0,North,-9999.0,-,N/A,,Overcast,0,2013-01-26 06:57:00